Tucson, AZ

6:35 AM MST on May 24, 2017 (GMT -0700)
Tucson International

Weather History for KTUS - November, 2014

Change the Weather History Date:

Friday, November 14, 2014

  Actual Average Record
Temperature  
Mean Temperature 66 °F 60 °F  
Max Temperature 79 °F 74 °F 90 °F (1999)
Min Temperature 52 °F 47 °F 24 °F (1916)
Degree Days  
Heating Degree Days 0 5  
Month to date heating degree days 18 53  
Since 1 July heating degree days 18 77  
Cooling Degree Days 1 1  
Month to date cooling degree days 41 23  
Year to date cooling degree days 3615 3142  
Growing Degree Days 16 (Base 50)    
Moisture  
Dew Point 47 °F    
Average Humidity 49    
Maximum Humidity 71    
Minimum Humidity 27    
Precipitation  
Precipitation 0.00 in 0.01 in 1.57 in (1968)
Month to date precipitation 0.00 0.23  
Year to date precipitation 8.02 10.32  
Sea Level Pressure  
Sea Level Pressure 29.92 in    
Wind  
Wind Speed 8 mph (SW)    
Max Wind Speed 17 mph    
Max Gust Speed 22 mph    
Visibility 10 miles    
Events      
T = Trace of Precipitation, MM = Missing Value Source: NWS Daily Summary

Daily Weather History Graph

Daily Weather History Graph

Search for Another Location

Airport or City:

Trip Planner

Search our weather history database for the weather conditions in past years. The results will help you decide how hot, cold, wet, or windy it might be!

Date:

Astronomy

Nov. 14, 2014 Rise Set
Actual Time 6:51 AM MST 5:24 PM MST
Civil Twilight 6:25 AM MST 5:50 PM MST
Nautical Twilight 5:56 AM MST 6:19 PM MST
Astronomical Twilight 5:27 AM MST 6:48 PM MST
Moon No Moon Rise 12:53 PM MST (11/14)
Length of Visible Light 11h 24m
Length of Day
10h 32m
Waning Gibbous, 49% of the Moon is Illuminated
Nov 14
Waning Gibbous
Nov 22
New
Nov 29
First Quarter
Dec 6
Full
Dec 14
Last Quarter

Hourly Weather History & Observations

Time (MST) Temp. Dew Point Humidity Pressure Visibility Wind Dir Wind Speed Gust Speed Precip Events Conditions
12:53 AM 60.1 °F 43.0 °F 53% 29.94 in 10.0 mi South 9.2 mph - N/A   Clear
1:53 AM 57.9 °F 45.0 °F 62% 29.93 in 10.0 mi SSE 10.4 mph - N/A   Clear
2:53 AM 57.0 °F 45.0 °F 64% 29.91 in 10.0 mi SE 8.1 mph - N/A   Clear
3:53 AM 57.9 °F 44.1 °F 60% 29.91 in 10.0 mi ESE 5.8 mph - N/A   Clear
4:53 AM 57.9 °F 44.1 °F 60% 29.91 in 10.0 mi SE 4.6 mph - N/A   Clear
5:53 AM 54.0 °F 44.1 °F 69% 29.94 in 10.0 mi South 4.6 mph - N/A   Clear
6:53 AM 54.0 °F 44.1 °F 69% 29.96 in 10.0 mi South 5.8 mph - N/A   Mostly Cloudy
7:53 AM 57.2 °F 46.4 °F 67% 30.05 in 10.0 mi SSE 9.2 mph - N/A   Clear
8:53 AM 64.9 °F 48.0 °F 54% 29.94 in 10.0 mi SSE 8.1 mph - N/A   Clear
9:53 AM 69.1 °F 50.0 °F 51% 29.94 in 10.0 mi Variable 5.8 mph - N/A   Clear
10:53 AM 73.9 °F 48.0 °F 40% 29.92 in 10.0 mi SSE 10.4 mph 17.3 mph N/A   Clear
11:53 AM 75.9 °F 46.0 °F 35% 29.89 in 10.0 mi South 4.6 mph - N/A   Clear
12:53 PM 78.8 °F 41.0 °F 26% 29.97 in 10.0 mi WNW 13.8 mph - N/A   Clear
1:53 PM 78.8 °F 46.4 °F 32% 29.95 in 10.0 mi NNW 12.7 mph - N/A   Partly Cloudy
2:00 PM 79.0 °F 46.9 °F 32% 29.95 in 10.0 mi WNW 15.0 mph - N/A   Partly Cloudy
2:53 PM 75.9 °F 48.9 °F 38% 29.86 in 10.0 mi NNW 16.1 mph - N/A   Partly Cloudy
3:53 PM 73.0 °F 48.9 °F 42% 29.85 in 10.0 mi North 8.1 mph - N/A   Clear
4:53 PM 72.0 °F 48.9 °F 44% 29.86 in 10.0 mi NNW 5.8 mph - N/A   Clear
5:53 PM 69.1 °F 48.0 °F 47% 29.89 in 10.0 mi NNW 12.7 mph - N/A   Partly Cloudy
6:53 PM 68.0 °F 48.0 °F 49% 29.90 in 10.0 mi NNW 4.6 mph - N/A   Clear
7:53 PM 66.0 °F 48.0 °F 52% 29.91 in 10.0 mi NW 3.5 mph - N/A   Clear
8:53 PM 64.9 °F 48.0 °F 54% 29.91 in 10.0 mi Calm Calm - N/A   Clear
9:53 PM 62.1 °F 48.0 °F 60% 29.92 in 10.0 mi WSW 4.6 mph - N/A   Clear
10:53 PM 62.1 °F 48.0 °F 60% 29.92 in 10.0 mi SSW 5.8 mph - N/A   Clear
11:53 PM 59.0 °F 48.0 °F 67% 29.93 in 10.0 mi SW 5.8 mph - N/A   Mostly Cloudy